Weather History for KP60 - July, 2013

Change the Weather History Date:

Tuesday, July 30, 2013

  Actual Average Record
Temperature  
Mean Temperature 55 °F 57 °F  
Max Temperature 72 °F 74 °F 82 °F (2000)
Min Temperature 37 °F 41 °F 29 °F (2009)
Degree Days  
Heating Degree Days 10 8  
Month to date heating degree days 188 275  
Since 1 June heating degree days 621 768  
Since 1 July heating degree days 188 275  
Cooling Degree Days 0 0  
Month to date cooling degree days 0 0  
Year to date cooling degree days 0 0  
Since 1 June cooling degree days 0 0  
Growing Degree Days 4 (Base 50)    
Moisture  
Dew Point 43 °F    
Average Humidity 63    
Maximum Humidity 100    
Minimum Humidity 25    
Precipitation  
Precipitation 0.23 in 0.04 in 0.23 in (2013)
Month to date precipitation 1.47 1.42  
Year to date precipitation 11.22 12.50  
Sea Level Pressure  
Sea Level Pressure 30.23 in    
Wind  
Wind Speed 2 mph (NW)    
Max Wind Speed 21 mph    
Max Gust Speed 38 mph    
T = Trace of Precipitation, MM = Missing Value Source: NWS Daily Summary

Daily Weather History Graph

Daily Weather History Graph

Search for Another Location

Airport or City:

Trip Planner

Search our weather history database for the weather conditions in past years. The results will help you decide how hot, cold, wet, or windy it might be!

Date:

Astronomy

Jul. 30, 2013 Rise Set
Actual Time 6:06 AM MDT 8:49 PM MDT
Civil Twilight 5:32 AM MDT 9:22 PM MDT
Nautical Twilight 4:50 AM MDT 10:04 PM MDT
Astronomical Twilight 4:01 AM MDT 10:53 PM MDT
Moon 12:28 AM MDT (7/30) 3:11 PM MDT (7/30)
Length of Visible Light 15h 49m
Length of Day
14h 42m
Last Quarter, 40% of the Moon is Illuminated
Jul 30
Last Quarter
Aug 6
New
Aug 14
First Quarter
Aug 20
Full
Aug 28
Last Quarter

Hourly Weather History & Observations

Time (MDT) Temp. Windchill Dew Point Humidity Pressure Visibility Wind Dir Wind Speed Gust Speed Precip Events Conditions
12:56 AM 46.9 °F - 41.0 °F 80% 30.14 in - Calm Calm - N/A   Unknown
2:56 AM 41.0 °F 39.0 °F 39.0 °F 93% 30.13 in - WNW 3.5 mph - N/A   Unknown
3:56 AM 39.0 °F - 37.9 °F 96% 30.14 in - Calm Calm - N/A   Unknown
4:56 AM 39.0 °F 36.8 °F 37.9 °F 96% 30.16 in - WNW 3.5 mph - N/A   Unknown
5:56 AM 37.9 °F - 37.0 °F 97% 30.19 in - Calm Calm - N/A   Unknown
6:56 AM 39.0 °F 36.8 °F 37.9 °F 96% 30.20 in - NW 3.5 mph - N/A   Unknown
7:56 AM 44.1 °F - 43.0 °F 96% 30.23 in - Calm Calm - N/A   Unknown
8:56 AM 50.0 °F - 46.9 °F 89% 30.23 in - Calm Calm - N/A   Unknown
9:56 AM 53.1 °F - 46.0 °F 77% 30.25 in - Calm Calm - N/A   Unknown
10:56 AM 55.0 °F - 51.1 °F 86% 30.24 in - Calm Calm - 0.22 in   Unknown
11:56 AM 55.9 °F - 46.0 °F 69% 30.25 in - Calm Calm - N/A   Unknown
12:56 PM 60.1 °F - 45.0 °F 57% 30.22 in - ESE 4.6 mph - N/A   Unknown
1:56 PM 60.1 °F - 46.9 °F 62% 30.21 in - Calm Calm - N/A   Unknown
2:56 PM 66.0 °F - 43.0 °F 43% 30.16 in - Variable 3.5 mph - N/A   Unknown
3:56 PM 71.1 °F - 34.0 °F 26% 30.14 in - West 11.5 mph 24.2 mph N/A   Unknown
4:52 PM 55.4 °F - 39.2 °F 54% 30.43 in - NW 13.8 mph 32.2 mph N/A   Unknown
4:56 PM 55.9 °F - 41.0 °F 57% 30.29 in - NW 11.5 mph 31.1 mph N/A   Unknown
5:56 PM 51.1 °F - 44.1 °F 77% 30.33 in - Calm Calm - 0.01 in   Unknown
6:56 PM 55.9 °F - 44.1 °F 64% 30.27 in - Calm Calm - N/A   Unknown
7:56 PM 55.0 °F - 44.1 °F 67% 30.29 in - Calm Calm - N/A   Unknown
8:56 PM 53.1 °F - 46.0 °F 77% 30.26 in - NNE 3.5 mph - N/A   Unknown
9:56 PM 48.9 °F - 45.0 °F 86% 30.27 in - NNW 3.5 mph - N/A   Unknown
10:56 PM 46.0 °F 44.8 °F 43.0 °F 89% 30.28 in - NW 3.5 mph - N/A   Unknown
11:56 PM 45.0 °F - 43.0 °F 93% 30.30 in - Calm Calm - N/A   Unknown